Location: Newark
(46.7000°N, 60.6000°W)
Time: 09:19:37
(UTC+00:00)

Transit 2A Rocket - Pass Details

Date: 01 November 2020
Orbit: 588 x 915 km, 66.7° (Epoch: 23 November)

Event Time Altitude Azimuth Distance (km) Brightness Sun altitude
Rises 11:15:30 0° 166° (SSE) 3,534 9.1 3.9°
Reaches altitude 10° 11:18:43 10° 150° (SSE) 2,596 8.9 4.4°
Maximum altitude 11:22:53 20° 106° (ESE) 1,988 8.9 5.1°
Drops below altitude 10° 11:26:58 10° 62° (ENE) 2,551 8.3 5.7°
Sets 11:30:05 0° 46° (NE) 3,452 8.6 6.1°
